Vertical_Velocity
-1 -1 -1 -1 -1 -1 -1 -1 -1 -1 -1 -1 -1 -1 -1 -1 -0 -1 -1 -1 -1 -1 -1 -1 -1 -1 -1 -1 -1 -1 -1 -1 -1 -1 -1 -2 -2 -2 -2 -1 -1 -0 0 -0 -0 -0 -1 -1 -1 -1 -1 -1 -1 -1 -2 -1 -1 -1 -0 -1 -1 -1 -1 -1 -1 -1 -1 -1 -1 -1 -1 -1 -1 -1 -1 -1 -1 -1 -0 -0 -1 -1 -0 -0 -0 -0 -0 0 0 -0 -0 0 0 -0 -1 -1 -1 -0 0 0 0 0 1
-1 -1 -1 -1 -1 -1 -1 -1 -1 -1 -1 -1 -1 -1 -1 -1 -0 -1 -1 -1 -1 -1 -1 -1 -1 -1 -1 -1 -1 -1 -1 -1 -1 -1 -1 -1 -1 -1 -1 -1 -1 -0 -0 -0 -1 -1 -1 -1 -1 -1 -1 -1 -1 -1 -1 -1 -1 -0 -0 -0 -1 -1 -1 -1 -1 -1 -1 -1 -1 -1 -1 -1 -1 -1 -1 -1 -1 -1 -1 -1 -1 -1 -1 -0 -0 -0 -0 -0 0 0 0 0 0 0 -0 -0 -0 -0 -0 -0 -0 -0 1
-1 -1 -1 -1 -1 -1 -1 -1 -1 -1 -1 -1 -1 -1 -1 -1 -0 -1 -1 -1 -1 -1 -1 -1 -0 -0 -1 -0 -0 -0 -0 -1 -1 -1 -1 -1 -1 -1 -1 -1 -1 -0 -0 -0 -1 -1 -1 -1 -1 -1 -1 -1 -1 -1 -1 -1 -1 -0 -0 -0 -0 -1 -1 -1 -1 -1 -1 -1 -1 -1 -1 -1 -1 -1 -1 -1 -1 -1 -1 -1 -1 -1 -1 -1 -1 -1 -1 -0 -0 0 0 0 0 0 0 0 0 -0 -0 -0 -0 -0 1
-1 -1 -0 -0 -1 -1 -1 -1 -1 -0 -0 -0 -0 -0 -0 -0 -0 -1 -1 -1 -1 -1 -1 -1 -0 -0 -1 -1 -0 -0 -0 -0 -1 -1 -0 -1 -1 -1 -1 -1 -1 -1 -0 -0 -1 -1 -1 -1 -1 -1 -1 -1 -1 -1 -1 -1 -1 -1 -0 -0 -0 -0 -0 -1 -1 -1 -1 -1 -1 -1 -1 -1 -1 -1 -1 -1 -1 -1 -1 -0 -0 -1 -1 -1 -1 -1 -1 -1 -0 0 0 0 0 0 1 0 0 0 -0 -0 -0 0 0
-1 -0 -0 -0 -1 -1 -1 -1 -0 -0 0 -0 -0 -0 0 -0 -0 -1 -1 -1 -1 -1 -1 -1 -0 -0 -1 -1 -0 -0 0 -0 -0 -0 -0 -0 -0 -0 -0 -1 -1 -1 -1 -1 -1 -1 -1 -1 -1 -1 -1 -1 -1 -1 -1 -1 -1 -1 -1 -0 -0 -0 -0 -1 -1 -1 -1 -1 -1 -1 -1 -1 -1 -1 -1 -1 -1 -1 -0 -0 -1 -1 -0 -0 -1 -1 -1 -1 -0 -0 0 0 0 0 0 0 0 0 0 0 -0 -0 0
-0 -0 -0 -0 -0 -0 -0 -1 -0 -0 0 -0 -0 -0 -0 -0 -0 -1 -1 -1 -1 -1 -1 -1 -1 -0 -0 -1 -0 -0 -0 -0 -0 -0 -0 -0 -0 -0 -0 -1 -1 -1 -1 -1 -1 -1 -1 -1 -1 -1 -1 -1 -1 -1 -1 -1 -1 -1 -1 -1 -1 -1 -1 -1 -1 -1 -1 -1 -1 -1 -1 -1 -1 -1 -1 -1 -1 -1 -0 -0 -0 -0 -0 -0 -0 -0 -0 -0 -0 -0 -0 -0 -0 0 0 0 0 0 0 0 0 0 0
-0 -0 -0 -0 -0 -0 -0 -0 -0 -0 0 -0 -0 -0 -0 -0 -0 -0 -0 -0 -1 -1 -1 -1 -1 -0 -0 -0 -0 -0 -0 -0 -0 -0 -1 -1 -1 -1 -1 -1 -1 -1 -1 -1 -1 -1 -1 -1 -1 -1 -1 -1 -1 -1 -1 -1 -1 -1 -1 -1 -1 -1 -1 -1 -1 -1 -1 -2 -2 -1 -1 -1 -1 -1 -1 -1 -1 -1 -1 -1 -1 -0 0 0 -0 -0 -0 -0 -0 -0 -0 -0 -0 -0 0 0 0 0 0 0 0 0 0
-0 -0 -0 -0 -0 -0 -0 -0 0 0 0 -0 -0 -0 -0 -0 -0 -0 -0 -0 -0 -1 -1 -1 -0 -0 -0 -0 -0 -0 -0 -0 -1 -1 -1 -1 -1 -1 -1 -1 -1 -1 -1 -1 -1 -1 -1 -1 -1 -1 -1 -1 -1 -1 -1 -1 -1 -1 -1 -1 -1 -1 -1 -2 -2 -1 -1 -2 -2 -1 -1 -1 -1 -1 -1 -1 -1 -1 -1 -1 -1 -1 -0 -0 -0 -0 0 0 0 -0 0 -0 -0 -0 0 0 0 0 1 0 0 -0 -0
-0 -0 -0 -0 -0 -0 -0 -0 0 0 0 0 0 -0 -0 -0 -0 -0 -0 -0 -0 -0 -0 -0 -0 -0 0 0 -0 -0 -0 -1 -1 -1 -1 -1 -1 -1 -1 -1 -1 -1 -1 -1 -1 -1 -1 -1 -1 -1 -1 -1 -1 -1 -1 -1 -1 -1 -1 -1 -1 -1 -1 -2 -2 -2 -1 -2 -2 -2 -1 -1 -1 -1 -1 -1 -1 -1 -1 -1 -1 -1 -0 -0 0 0 0 0 0 0 0 0 -0 -0 0 0 0 0 1 1 1 0 -0
-0 -0 0 0 0 -0 0 0 0 0 0 0 0 0 -0 -0 -0 -0 -0 0 0 0 0 0 0 0 0 -0 -0 -0 -1 -1 -1 -1 -1 -1 -1 -1 -1 -1 -1 -1 -1 -1 -1 -2 -2 -2 -1 -1 -1 -1 -1 -1 -1 -1 -1 -1 -1 -1 -1 -1 -1 -1 -2 -2 -1 -2 -2 -1 -1 -1 -1 -1 -1 -1 -1 -1 -1 -1 -1 -1 -0 -0 -0 0 0 0 0 0 0 0 0 0 0 0 0 0 1 1 1 1 0
-0 -0 -0 -0 0 0 0 0 -0 -0 -0 0 0 -0 -0 -0 -0 -0 0 0 0 0 0 0 0 0 -0 -0 -1 -1 -1 -1 -1 -1 -1 -1 -1 -1 -1 -1 -1 -1 -1 -1 -2 -2 -2 -2 -2 -2 -1 -1 -1 -1 -1 -1 -1 -1 -1 -1 -1 -1 -1 -1 -1 -1 -1 -1 -1 -1 -1 -1 -1 -1 -1 -1 -1 -1 -1 -1 -1 -1 -1 -0 -0 -0 -0 0 0 0 0 0 0 0 0 0 0 0 1 1 1 1 0
-0 -0 -0 -0 0 0 0 0 -0 -0 0 0 0 -0 -0 -0 -0 0 0 0 0 0 0 0 0 -0 -0 -1 -1 -1 -1 -1 -1 -1 -1 -1 -1 -1 -1 -1 -1 -1 -2 -2 -2 -2 -1 -2 -2 -2 -1 -1 -1 -1 -1 -1 -1 -1 -1 -1 -1 -1 -1 -1 -1 -1 -1 -1 -1 -1 -1 -1 -1 -1 -1 -1 -1 -1 -1 -1 -1 -1 -1 -0 -0 -0 -0 -0 -0 -0 -0 0 0 0 0 0 0 0 1 1 1 1 1
-0 -0 -0 -0 0 0 0 0 -0 -0 0 0 0 0 -0 -0 -0 0 -0 -0 0 0 0 -0 -0 -0 -1 -1 -1 -1 -1 -1 -1 -1 -1 -1 -1 -1 -2 -1 -1 -2 -2 -2 -2 -1 -1 -1 -2 -2 -1 -1 -1 -1 -1 -1 -1 -1 -1 -1 -0 -1 -1 -1 -1 -1 -1 -1 -1 -1 -1 -1 -1 -1 -1 -1 -1 -1 -1 -1 -1 -1 -1 -1 -1 -0 -0 -0 -0 -1 -1 -0 -0 -0 0 0 0 0 0 1 1 1 0
-0 -0 -0 -0 0 0 0 0 0 -0 0 0 0 0 -0 -0 -0 -0 -0 -0 -0 -0 -0 -0 -0 -1 -1 -1 -1 -1 -1 -1 -1 -1 -1 -1 -2 -2 -2 -2 -1 -2 -2 -2 -2 -1 -1 -1 -1 -2 -1 -1 -1 -1 -1 -1 -1 -1 -0 -0 -1 -1 -1 -1 -1 -1 -1 -1 -1 -1 -1 -1 -1 -1 -1 -1 -1 -1 -1 -1 -1 -1 -1 -1 -1 -1 -1 -1 -1 -1 -1 -1 -0 -0 -0 0 0 0 0 1 1 1 0
0 -0 -0 -0 -0 0 0 0 0 -0 -0 0 -0 -0 -0 -0 -0 -1 -1 -1 -1 -1 -1 -1 -1 -1 -1 -1 -1 -1 -1 -1 -1 -1 -1 -2 -2 -2 -2 -2 -2 -1 -2 -1 -1 -1 -1 -1 -1 -1 -1 -1 -1 -1 -1 -1 -1 -1 -1 -1 -1 -1 -1 -1 -1 -1 -1 -1 -1 -1 -1 -1 -1 -1 -1 -1 -1 -1 -1 -1 -1 -1 -1 -1 -1 -1 -1 -1 -1 -1 -1 -1 -1 -1 -0 -0 0 0 0 0 0 0 0
-0 -0 -1 -0 -0 -0 -0 -0 -0 -0 -0 -0 -0 -0 -1 -1 -1 -1 -1 -1 -1 -1 -1 -1 -1 -1 -1 -1 -1 -1 -1 -1 -1 -1 -1 -1 -1 -2 -2 -1 -1 -1 -1 -1 -1 -1 -1 -1 -1 -1 -1 -1 -1 -1 -1 -1 -1 -1 -1 -1 -1 -1 -1 -1 -1 -1 -1 -1 -1 -1 -1 -1 -1 -1 -1 -1 -1 -1 -1 -1 -1 -1 -1 -0 -0 -0 -1 -1 -1 -1 -1 -1 -1 -1 -1 -0 -0 0 0 0 0 0 0
-1 -1 -1 -1 -1 -1 -1 -0 -1 -1 -1 -1 -1 -1 -1 -1 -1 -1 -1 -1 -1 -1 -1 -1 -1 -1 -1 -1 -1 -1 -1 -1 -1 -1 -1 -1 -1 -1 -1 -1 -1 -1 -1 -1 -1 -1 -1 -1 -1 -1 -1 -1 -1 -1 -1 -1 -1 -1 -1 -1 -1 -1 -1 -1 -1 -1 -1 -1 -1 -1 -1 -1 -1 -1 -1 -1 -1 -1 -0 -0 -0 -0 -0 -0 -0 -0 -0 -1 -1 -1 -1 -1 -1 -1 -1 -1 -1 -0 -0 -0 -0 0 -0
-1 -1 -1 -1 -1 -1 -1 -1 -1 -1 -1 -1 -1 -1 -1 -1 -1 -1 -1 -1 -1 -1 -1 -1 -1 -1 -1 -1 -1 -1 -1 -1 -1 -1 -1 -1 -1 -1 -1 -1 -1 -1 -1 -1 -1 -1 -1 -1 -1 -1 -1 -1 -1 -1 -1 -1 -1 -1 -1 -1 -1 -1 -1 -1 -1 -1 -1 -1 -1 -1 -1 -1 -1 -1 -0 -0 -0 -0 -0 -0 -0 -0 -0 -0 0 0 -0 -1 -1 -1 -1 -1 -1 -1 -1 -1 -1 -1 -1 -1 -1 -0 -0
-1 -1 -1 -1 -1 -1 -1 -1 -1 -1 -1 -1 -1 -1 -1 -1 -1 -1 -1 -1 -1 -1 -1 -1 -1 -1 -1 -1 -1 -1 -1 -1 -1 -1 -1 -1 -1 -1 -1 -1 -1 -1 -1 -1 -1 -1 -1 -1 -1 -1 -1 -1 -1 -1 -1 -1 -1 -1 -1 -1 -1 -1 -1 -1 -1 -1 -1 -1 -1 -1 -1 -1 -1 -1 -0 -0 -0 -0 -0 -0 -0 -0 -0 -1 -0 0 0 -0 -1 -1 -1 -1 -1 -1 -1 -1 -1 -1 -1 -1 -1 -1 -1
-1 -1 -1 -1 -1 -1 -1 -1 -1 -1 -1 -1 -1 -1 -1 -1 -1 -1 -1 -1 -1 -1 -1 -1 -1 -1 -1 -1 -2 -2 -2 -1 -1 -1 -1 -1 -1 -1 -1 -1 -1 -1 -1 -1 -1 -1 -1 -1 -1 -1 -1 -1 -1 -1 -1 -1 -1 -1 -1 -1 -1 -1 -1 -1 -1 -1 -1 -1 -1 -1 -1 -1 -1 -0 -0 -0 -0 -0 -0 -0 -0 -0 -0 -1 -1 -0 0 -0 -0 -1 -1 -1 -1 -0 -0 -0 -1 -1 -1 -1 -1 -1 -2
-1 -1 -1 -1 -1 -1 -1 -1 -1 -1 -1 -1 -1 -1 -1 -1 -1 -1 -1 -1 -1 -1 -1 -1 -1 -1 -2 -2 -2 -2 -2 -2 -1 -1 -1 -1 -1 -1 -1 -1 -1 -1 -1 -1 -0 -1 -1 -1 -1 -1 -1 -1 -1 -1 -1 -1 -1 -1 -1 -1 -1 -1 -1 -1 -1 -1 -1 -1 -1 -1 -1 -1 -1 -1 -1 -0 -0 -0 -0 -0 -0 -0 -0 -1 -1 -1 -0 -0 -0 -1 -1 -1 -0 -0 -0 -0 -0 -0 -1 -1 -1 -2 -2
-1 -1 -1 -1 -1 -1 -1 -1 -1 -1 -1 -1 -1 -1 -1 -1 -1 -1 -1 -1 -1 -1 -1 -2 -2 -2 -2 -2 -2 -2 -2 -2 -1 -1 -1 -1 -1 -1 -1 -1 -1 -1 -1 -1 -1 -1 -1 -1 -1 -1 -1 -1 -1 -1 -1 -1 -1 -1 -1 -1 -1 -1 -1 -1 -1 -1 -1 -1 -1 -1 -1 -1 -1 -1 -1 -1 -0 -0 -0 -0 -0 -0 -0 -0 -1 -1 -1 -0 -0 -1 -1 -1 -1 -0 -0 -0 -0 -0 -0 -1 -1 -2 -2
-1 -1 -1 -1 -1 -1 -1 -1 -1 -1 -1 -1 -1 -1 -1 -1 -1 -1 -1 -1 -1 -2 -2 -2 -2 -2 -2 -2 -2 -2 -2 -1 -1 -1 -1 -1 -1 -1 -1 -1 -1 -1 -1 -1 -1 -1 -1 -1 -1 -1 -1 -1 -1 -1 -1 -1 -1 -1 -1 -1 -1 -1 -1 -1 -1 -1 -1 -1 -1 -1 -1 -1 -1 -1 -1 -1 -1 -0 -0 -0 -0 -0 -0 -0 -0 -0 -1 -1 -1 -1 -1 -1 -1 -1 -1 -1 -0 -0 0 -0 -1 -1 -2
-1 -1 -1 -1 -1 -1 -1 -1 -1 -1 -1 -1 -1 -1 -1 -1 -1 -1 -1 -1 -1 -1 -2 -2 -2 -2 -2 -2 -2 -2 -2 -1 -1 -1 -1 -1 -1 -1 -1 -1 -1 -1 -1 -1 -1 -1 -1 -1 -1 -1 -1 -1 -1 -1 -1 -1 -1 -1 -1 -1 -1 -1 -1 -1 -1 -1 -1 -1 -1 -1 -1 -1 -1 -1 -1 -1 -1 -1 -0 -0 -0 -0 -0 -0 -0 -0 -1 -1 -1 -1 -2 -2 -2 -2 -2 -1 -1 -1 -0 -0 -1 -1 -1
-1 -1 -1 -1 -1 -1 -1 -1 -1 -1 -1 -1 -1 -1 -1 -1 -1 -1 -1 -1 -1 -1 -2 -2 -2 -2 -2 -2 -2 -2 -1 -1 -1 -1 -1 -1 -1 -2 -1 -1 -1 -1 -1 -1 -1 -1 -1 -1 -1 -1 -1 -1 -1 -1 -1 -2 -2 -2 -1 -1 -1 -1 -1 -1 -1 -1 -1 -1 -1 -1 -1 -1 -1 -1 -1 -1 -1 -1 -1 -0 -0 -0 -1 -1 -1 -1 -1 -1 -1 -1 -2 -2 -3 -3 -3 -3 -2 -2 -1 -1 -1 -1 -1
-0 -0 -1 -1 -1 -1 -1 -1 -1 -1 -1 -1 -0 -0 -1 -1 -1 -1 -1 -1 -1 -1 -1 -1 -2 -2 -2 -2 -2 -2 -2 -1 -1 -1 -1 -1 -1 -1 -1 -1 -1 -1 -1 -1 -1 -1 -1 -1 -1 -1 -1 -1 -1 -1 -1 -2 -2 -2 -2 -1 -1 -1 -1 -1 -1 -1 -1 -1 -1 -1 -1 -1 -1 -1 -1 -1 -1 -1 -1 -1 -1 -1 -1 -1 -1 -1 -1 -1 -1 -1 -2 -2 -3 -3 -3 -3 -3 -3 -2 -2 -1 -1 -1
-0 0 -0 -0 -1 -1 -1 -1 -1 -1 -1 -0 -0 -0 -0 -0 -0 -0 -0 -1 -1 -1 -1 -1 -2 -2 -2 -2 -2 -2 -2 -1 -1 -1 -1 -1 -1 -1 -1 -1 -1 -1 -1 -1 -1 -1 -1 -1 -1 -1 -1 -1 -1 -1 -1 -1 -1 -1 -2 -1 -1 -1 -1 -1 -1 -1 -1 -1 -1 -1 -1 -1 -1 -1 -1 -1 -1 -1 -1 -1 -1 -1 -1 -1 -1 -1 -1 -1 -1 -1 -2 -2 -2 -2 -3 -3 -3 -3 -3 -2 -2 -2 -1
-0 -0 -0 -0 -1 -1 -1 -1 -1 -0 -0 -0 -0 -0 0 -0 -1 -1 -0 -0 -1 -1 -1 -1 -2 -2 -2 -2 -2 -2 -2 -1 -1 -1 -1 -1 -1 -1 -1 -1 -1 -1 -1 -1 -1 -1 -1 -1 -1 -1 -1 -1 -1 -1 -1 -1 -1 -1 -1 -1 -1 -1 -1 -1 -1 -1 -1 -1 -1 -1 -1 -1 -1 -1 -1 -1 -1 -1 -1 -1 -1 -1 -1 -2 -2 -2 -2 -1 -1 -1 -1 -1 -2 -2 -2 -2 -2 -2 -2 -2 -2 -2 -2
-0 -0 -1 -1 -1 -1 -1 -1 -0 -0 -0 -0 -0 -1 -0 -0 -1 -1 -1 -1 -1 -1 -1 -1 -2 -2 -2 -2 -2 -1 -1 -1 -1 -1 -1 -1 -1 -1 -1 -1 -1 -1 -1 -1 -1 -1 -1 -1 -1 -1 -1 -1 -1 -1 -1 -1 -1 -1 -1 -1 -1 -1 -1 -1 -1 -1 -1 -1 -1 -1 -1 -1 -1 -1 -1 -1 -1 -1 -1 -1 -1 -1 -1 -2 -2 -2 -2 -2 -1 -1 -1 -1 -2 -2 -1 -1 -1 -1 -1 -2 -2 -2 -2
-0 -1 -1 -1 -1 -1 -1 -1 -0 -0 -0 -0 -1 -1 -1 -1 -1 -1 -1 -1 -1 -1 -1 -1 -2 -2 -2 -2 -2 -2 -2 -1 -1 -1 -1 -1 -1 -1 -1 -1 -1 -1 -1 -1 -1 -1 -1 -1 -1 -1 -1 -1 -1 -1 -1 -1 -1 -1 -1 -1 -1 -1 -1 -1 -1 -1 -1 -1 -1 -1 -1 -1 -1 -1 -1 -1 -0 -1 -1 -1 -1 -1 -1 -1 -2 -2 -2 -2 -1 -1 -1 -1 -2 -2 -2 -1 -1 -1 -1 -1 -1 -1 -1
-0 -1 -1 -1 -1 -1 -1 -1 -1 -1 -0 -1 -1 -1 -1 -1 -1 -1 -1 -1 -1 -1 -1 -2 -2 -2 -2 -2 -2 -2 -2 -1 -1 -1 -1 -1 -1 -1 -1 -1 -1 -1 -1 -1 -1 -1 -1 -1 -1 -1 -1 -1 -1 -1 -1 -2 -2 -2 -2 -2 -2 -1 -1 -1 -1 -1 -1 -1 -1 -1 -1 -1 -1 -1 -1 -1 -1 -1 -1 -1 -1 -1 -1 -1 -2 -2 -2 -1 -1 -1 -1 -1 -2 -2 -2 -2 -2 -1 -0 -0 -0 -1 -1
-0 -1 -1 -1 -1 -1 -1 -1 -1 -1 -1 -1 -1 -1 -1 -1 -1 -2 -2 -1 -1 -1 -1 -2 -2 -2 -3 -2 -2 -2 -1 -1 -1 -1 -1 -1 -1 -1 -1 -1 -1 -1 -1 -1 -1 -1 -1 -1 -1 -1 -1 -1 -1 -2 -1 -2 -2 -2 -2 -2 -2 -2 -1 -1 -1 -1 -1 -1 -1 -1 -1 -1 -1 -1 -1 -1 -1 -1 -1 -1 -1 -1 -1 -1 -1 -2 -2 -1 -1 -1 -0 -0 -1 -1 -2 -3 -3 -2 -1 -1 -0 -0 -0
-0 -1 -1 -1 -1 -1 -1 -1 -2 -2 -1 -1 -1 -1 -2 -1 -1 -1 -2 -2 -1 -1 -1 -1 -2 -2 -2 -2 -2 -2 -1 -1 -1 -1 -2 -1 -1 -1 -1 -1 -1 -1 -1 -1 -1 -1 -1 -1 -1 -1 -1 -1 -2 -2 -1 -2 -2 -2 -2 -2 -1 -1 -1 -1 -1 -1 -1 -1 -1 -1 -1 -1 -1 -1 -1 -1 -1 -1 -1 -1 -1 -1 -0 -1 -1 -1 -2 -2 -1 -1 -0 0 0 -0 -1 -2 -3 -3 -3 -2 -1 -1 -0
-0 -1 -1 -1 -1 -1 -1 -1 -1 -1 -1 -1 -1 -1 -2 -2 -2 -1 -1 -2 -1 -1 -1 -1 -1 -2 -2 -2 -2 -2 -1 -1 -1 -1 -2 -2 -1 -1 -1 -1 -1 -1 -1 -1 -1 -1 -1 -1 -1 -1 -1 -1 -1 -2 -2 -2 -2 -2 -2 -2 -1 -1 -1 -1 -1 -1 -1 -1 -1 -1 -1 -1 -1 -1 -1 -1 -1 -1 -1 -1 -1 -1 -1 -0 -0 -1 -1 -2 -1 -1 -1 0 1 1 0 -1 -2 -3 -3 -2 -2 -1 -1
-1 -1 -1 -1 -1 -1 -1 -1 -1 -1 -1 -1 -1 -1 -1 -1 -1 -1 -1 -1 -1 -1 -1 -0 -1 -2 -2 -1 -1 -1 -2 -1 -1 -1 -1 -2 -2 -2 -1 -1 -1 -1 -1 -1 -1 -1 -1 -1 -1 -1 -1 -1 -1 -1 -2 -2 -2 -2 -2 -2 -2 -1 -1 -1 -1 -1 -1 -1 -1 -1 -1 -1 -1 -1 -1 -1 -1 -1 -1 -1 -1 -1 -1 -1 -0 -0 -1 -1 -1 -1 -1 -0 0 1 1 1 -0 -1 -2 -2 -2 -2 -1
-1 -1 -1 -1 -1 -2 -1 -1 -1 -1 -1 -1 -1 -1 -2 -2 -1 -1 -1 -1 -1 -1 -1 -1 -1 -1 -2 -2 -2 -2 -2 -2 -2 -2 -1 -1 -2 -2 -1 -1 -1 -1 -1 -1 -1 -1 -1 -1 -1 -1 -1 -1 -1 -1 -1 -2 -2 -2 -2 -1 -1 -1 -1 -1 -1 -1 -1 -1 -1 -1 -1 -1 -1 -1 -1 -1 -1 -1 -1 -1 -1 -1 -1 -1 -1 -1 -0 -1 -1 -1 -1 -1 -0 0 1 1 1 0 -1 -2 -2 -2 -2
-1 -1 -1 -1 -1 -1 -2 -1 -1 -1 -1 -1 -1 -1 -2 -2 -2 -1 -1 -1 -1 -1 -1 -1 -1 -1 -2 -2 -2 -2 -2 -2 -2 -2 -2 -2 -2 -2 -1 -1 -1 -1 -1 -1 -1 -1 -1 -1 -1 -1 -1 -1 -1 -1 -1 -1 -1 -1 -1 -1 -1 -1 -1 -1 -1 -1 -1 -1 -1 -1 -1 -1 -1 -1 -1 -1 -1 -1 -1 -1 -1 -1 -1 -1 -1 -1 -1 -1 -1 -1 -1 -1 -1 -0 0 1 1 1 0 -1 -1 -2 -2
-1 -1 -1 -1 -1 -1 -1 -1 -1 -1 -1 -1 -1 -1 -2 -2 -2 -1 -1 -1 -1 -1 -1 -1 -1 -1 -2 -2 -2 -2 -2 -1 -2 -2 -2 -2 -2 -2 -2 -2 -1 -1 -1 -1 -1 -1 -1 -1 -1 -1 -1 -1 -1 -1 -1 -1 -1 -1 -1 -1 -1 -1 -1 -1 -1 -1 -1 -1 -1 -1 -1 -1 -1 -1 -1 -1 -1 -1 -1 -1 -1 -1 -1 -1 -1 -1 -1 -1 -1 -1 -1 -1 -1 -1 -0 0 1 1 1 0 -1 -1 -1
-1 -1 -1 -1 -1 -1 -1 -1 -1 -1 -1 -1 -1 -1 -2 -2 -3 -2 -1 -1 -1 -1 -0 -1 -1 -2 -2 -2 -2 -2 -1 -1 -1 -2 -2 -2 -2 -2 -2 -2 -2 -1 -1 -1 -1 -1 -1 -1 -1 -1 -1 -1 -1 -1 -1 -1 -1 -1 -1 -1 -1 -1 -1 -1 -1 -1 -1 -1 -1 -1 -1 -1 -1 -1 -1 -1 -1 -1 -1 -1 -1 -1 -1 -1 -1 -1 -1 -1 -1 -1 -0 -0 -1 -1 -1 -0 0 1 1 0 0 -1 -1
-1 -1 -1 -1 -1 -1 -1 -1 -1 -1 -1 -1 -1 -1 -2 -2 -2 -2 -2 -1 -2 -1 0 0 -1 -2 -3 -2 -2 -2 -2 -1 -1 -2 -2 -2 -2 -2 -2 -2 -2 -2 -1 -1 -1 -1 -1 -1 -1 -1 -1 -1 -1 -1 -1 -1 -1 -1 -1 -1 -1 -1 -1 -1 -1 -1 -1 -1 -1 -1 -1 -1 -1 -1 -1 -1 -1 -1 -1 -1 -1 -1 -1 -1 -1 -1 -1 -1 -1 -0 -0 -0 -0 -0 -1 -0 0 1 1 1 0 -0 -0
-2 -1 -1 -1 -1 -1 -1 -1 -1 -1 -1 -1 -1 -1 -2 -2 -2 -2 -2 -2 -2 -2 -1 0 0 -1 -3 -3 -2 -2 -2 -2 -1 -1 -2 -2 -2 -2 -2 -2 -2 -2 -1 -1 -1 -1 -1 -1 -1 -1 -1 -1 -1 -1 -1 -1 -1 -1 -1 -1 -1 -1 -1 -1 -1 -1 -1 -1 -1 -1 -1 -1 -1 -1 -1 -1 -1 -1 -1 -1 -1 -1 -1 -1 -1 -1 -1 -1 -1 -1 -0 -0 0 0 -0 -0 0 0 1 1 1 0 0
-2 -1 -1 -1 -0 0 0 -1 -1 -2 -1 -1 -1 -1 -1 -2 -2 -2 -1 -2 -2 -2 -1 -0 0 -0 -1 -2 -2 -2 -2 -2 -1 -1 -1 -2 -2 -2 -2 -2 -2 -2 -1 -1 -1 -1 -1 -1 -1 -1 -1 -1 -1 -1 -1 -1 -0 -1 -1 -1 -1 -1 -1 -1 -1 -1 -1 -1 -1 -1 -1 -1 -1 -1 -1 -1 -1 -1 -1 -1 -1 -1 -1 -1 -1 -1 -1 -1 -1 -1 -1 -0 0 0 0 0 0 0 1 1 1 1 0
-2 -1 -1 -1 -0 0 1 -0 -1 -2 -2 -1 -1 -0 -1 -1 -2 -2 -1 -1 -2 -2 -2 -1 -0 -0 -1 -2 -2 -2 -1 -2 -2 -1 -1 -2 -2 -2 -2 -2 -2 -2 -1 -1 -1 -1 -1 -1 -1 -1 -1 -1 -1 -1 -1 -0 -0 -0 -0 -1 -1 -1 -1 -1 -1 -1 -1 -1 -1 -1 -1 -1 -1 -1 -1 -1 -1 -1 -1 -1 -1 -1 -1 -1 -1 -1 -2 -2 -2 -1 -1 -1 -0 0 1 1 1 1 1 1 1 0 1
-1 -1 -1 -0 0 0 1 0 -1 -2 -2 -1 -1 -1 -0 -1 -2 -2 -2 -2 -2 -2 -3 -1 -0 0 -0 -1 -2 -2 -1 -1 -1 -2 -1 -2 -2 -2 -2 -2 -2 -2 -2 -1 -1 -1 -1 -1 -1 -1 -1 -1 -1 -1 -1 -0 -0 -0 -0 -0 -1 -1 -1 -1 -1 -1 -1 -1 -1 -1 -1 -1 -1 -1 -1 -1 -1 -1 -1 -1 -1 -1 -1 -1 -1 -1 -2 -2 -2 -2 -2 -1 -1 0 1 1 1 1 1 1 1 0 0
-1 -1 -0 0 0 0 0 0 -1 -2 -2 -1 -1 -1 -1 -1 -2 -2 -2 -2 -2 -2 -2 -2 -1 0 0 -0 -1 -2 -2 -1 -1 -1 -2 -2 -2 -2 -2 -2 -2 -1 -2 -2 -2 -1 -1 -1 -1 -1 -1 -1 -1 -1 -1 -0 -0 -0 -0 -0 -0 -0 -0 -1 -1 -1 -1 -1 -1 -1 -1 -1 -1 -1 -1 -1 -1 -1 -1 -1 -1 -1 -1 -1 -1 -1 -2 -2 -2 -3 -3 -2 -1 -1 0 1 1 2 2 1 1 0 0
-1 -0 0 0 0 0 0 -0 -1 -1 -2 -1 -1 -1 -1 -1 -2 -2 -2 -3 -3 -2 -2 -2 -2 -1 -0 0 -0 -1 -2 -1 -1 -1 -1 -1 -2 -1 -1 -2 -2 -1 -1 -2 -2 -1 -1 -1 -1 -1 -1 -1 -1 -1 -0 -0 -0 -0 -0 -0 -0 -0 -1 -1 -1 -1 -1 -1 -1 -1 -1 -1 -1 -1 -1 -1 -1 -1 -1 -1 -1 -1 -1 -1 -1 -1 -2 -2 -2 -3 -3 -3 -2 -2 -1 -0 0 1 1 1 1 0 0
-0 0 0 0 0 -0 -1 -1 -1 -1 -1 -1 -1 -1 -1 -1 -2 -2 -2 -2 -3 -3 -3 -2 -2 -2 -1 -1 -0 -1 -1 -1 -1 -1 -1 -2 -1 -1 -1 -1 -2 -1 -1 -1 -1 -2 -2 -1 -1 -1 -1 -1 -1 -1 -1 -1 -1 -1 -1 -1 -0 -0 -1 -1 -1 -1 -1 -1 -1 -1 -1 -1 -1 -1 -1 -1 -1 -1 -1 -1 -1 -0 -1 -1 -1 -1 -1 -2 -2 -3 -3 -3 -3 -2 -2 -1 -0 0 1 1 0 0 -0
-0 0 1 0 0 -0 -1 -2 -2 -2 -1 -1 -1 -1 -1 -1 -2 -2 -2 -2 -2 -3 -4 -3 -2 -2 -2 -1 -1 -1 -1 -1 -1 -0 -1 -2 -2 -1 -1 -1 -1 -1 -1 -1 -1 -1 -1 -1 -1 -1 -1 -1 -1 -1 -1 -1 -1 -1 -1 -1 -1 -1 -1 -1 -1 -1 -1 -1 -1 -1 -1 -1 -1 -1 -1 -1 -1 -1 -1 -1 -1 -0 -0 -1 -1 -1 -1 -1 -1 -2 -3 -3 -3 -3 -3 -2 -1 -1 -0 -0 -0 -1 -1
-0 0 1 0 -0 -1 -1 -2 -2 -2 -2 -1 -0 -0 -1 -1 -1 -2 -2 -1 -1 -2 -3 -3 -2 -1 -1 -2 -2 -2 -1 -1 -1 -1 -0 -1 -2 -3 -3 -1 -1 -1 -1 -1 -0 -1 -1 -1 -1 -1 -2 -2 -1 -1 -1 -1 -1 -1 -1 -1 -1 -1 -1 -1 -1 -1 -1 -1 -1 -1 -1 -1 -1 -1 -1 -1 -1 -0 -1 -1 -1 -1 -1 -1 -1 -1 -0 -1 -1 -1 -2 -3 -3 -4 -3 -3 -2 -2 -1 -1 -1 -1 -1
0 0 0 -0 -1 -1 -1 -2 -2 -3 -2 -1 -1 -0 -0 -1 -1 -2 -2 -2 -1 -2 -2 -3 -2 -1 1 -1 -2 -2 -1 -1 -1 -1 -1 -2 -1 -1 -3 -3 -3 -2 -1 -0 -0 0 1 -0 -1 -2 -0 -1 -2 -1 -1 -1 -1 -1 -1 -1 -1 -1 -1 -1 -1 -1 -1 -1 -1 -1 -1 -1 -1 -1 -1 -1 -0 -0 0 0 -0 -0 -1 -1 -1 -1 -1 -1 -1 -1 -1 -2 -3 -4 -3 -3 -3 -2 -2 -2 -2 -2 -2
1 1 0 -1 -1 -1 -0 -1 -2 -3 -3 -2 -1 -1 -0 -0 -1 -1 -1 -1 -1 -2 -1 -3 -4 -3 0 0 -1 -2 -1 -1 -1 -0 -1 -3 -2 -1 -1 -1 -2 -3 -3 -1 -1 -1 0 2 0 -2 -1 -0 -1 -1 -2 -1 -1 -1 -1 -1 -1 -1 -1 -1 -1 -1 -1 -1 -1 -1 -1 -1 -1 -1 -1 -1 -1 -0 0 0 0 0 0 0 0 -0 -1 -1 -1 -1 -1 -2 -2 -3 -3 -3 -2 -2 -2 -2 -2 -2 -2
1 0 -0 -1 -1 -1 0 -0 -1 -2 -2 -2 -2 -2 -1 0 -1 -1 -1 -1 -1 -2 -1 -2 -3 -3 -2 -0 -1 -2 -1 -1 -0 -0 -0 -2 -2 -1 -1 -1 -1 -2 -3 -2 -2 -2 -3 -1 1 0 -3 -2 -1 -1 -1 -1 -1 -1 -1 -1 -1 -1 -1 -1 -1 -1 -1 -1 -1 -1 -1 -1 -1 -1 -1 -1 -1 -1 -0 0 0 1 1 1 2 1 1 0 -0 -1 -1 -2 -2 -2 -2 -2 -2 -2 -2 -2 -2 -2 -1
1 -0 -1 -1 -1 -1 0 1 -0 -1 -2 -1 -1 -2 -1 -0 -0 -1 -1 -1 -1 -2 -2 -2 -2 -2 -4 -2 -2 -2 -3 -1 0 -0 -1 -1 -1 -1 -2 -2 -2 -1 -1 -1 -1 -1 -1 -3 -2 0 0 -1 -2 -2 -1 0 0 -1 -1 -1 -1 -1 -1 -1 -1 -1 -1 -1 -1 -1 -1 -1 -1 -1 -1 -1 -1 -1 -0 -0 0 0 1 1 2 2 2 2 1 0 -1 -2 -2 -2 -1 -1 -1 -1 -1 -1 -1 -1 -1
1 -0 -1 -1 -1 -0 1 1 0 -1 -1 -1 -1 -1 -1 -1 -0 -1 -1 -1 -1 -2 -2 -2 -2 -1 -2 -3 -3 -3 -3 -1 -0 0 -1 -1 -1 -0 -1 -1 -2 -2 -1 -1 -1 -2 -0 0 -1 -3 -3 -0 0 -0 -3 -1 0 0 -1 -1 -1 -0 -0 -1 -1 -0 -0 -1 -1 -1 -2 -2 -1 -1 -1 -1 -1 -1 -1 -1 -0 -0 0 1 1 2 2 2 2 1 -0 -1 -2 -2 -1 -1 -1 -1 -1 -1 -1 -1 -1
1 -0 -0 -1 -1 -0 1 1 1 -0 -2 -1 -1 -1 -1 -1 -0 -0 -0 -1 -1 -2 -2 -2 -2 -2 -1 -2 -3 -3 -3 -2 -1 0 0 -1 -1 0 0 -1 -2 -3 -2 -2 -2 -3 -4 -1 1 0 -5 -5 -2 1 1 -2 -2 -0 1 -0 -1 -1 -0 -0 -0 -0 -0 -0 -1 -1 -2 -2 -2 -1 -1 -1 -1 -1 -1 -1 -0 -0 -0 0 0 1 2 2 2 2 1 -1 -1 -2 -1 -1 -1 -1 -1 -1 -1 -1 -1
1 0 -1 -0 -0 0 0 1 1 -0 -1 -1 -1 -1 -1 -1 -0 0 0 -0 -1 -1 -1 -2 -2 -2 -1 -1 -2 -3 -4 -4 -2 -1 1 0 0 0 -0 -1 -1 -2 -2 -1 -1 -1 -2 -3 -2 0 2 -1 -4 -4 1 1 -1 -2 -0 1 0 -1 -1 -1 -0 -1 -1 -0 -1 -1 -2 -2 -2 -2 -2 -2 -1 -1 -1 -1 -1 -1 -1 -0 0 1 1 2 2 2 1 0 -1 -1 -1 -0 -0 -1 -0 -1 -1 -1 -1
1 1 -0 0 0 1 1 1 1 0 -1 -1 -1 -1 -1 -1 -1 0 0 -0 -1 -1 -1 -1 -2 -2 -2 -1 -1 -2 -4 -4 -4 -2 0 0 0 1 1 0 -0 -0 -1 -2 -2 -1 -0 1 -1 -3 -2 4 1 -4 -6 0 2 0 -2 -1 0 1 0 -0 -1 -1 -1 -1 -1 -1 -2 -2 -2 -2 -3 -2 -2 -1 -1 -1 -1 -1 -1 -0 0 0 1 1 2 2 1 0 -1 -1 0 0 0 0 -0 -1 -1 -1 -2
1 1 0 0 1 1 1 1 1 1 0 -0 -1 -1 -1 -1 -1 -0 0 0 0 -0 -1 -1 -1 -2 -2 -2 -1 -1 -2 -4 -5 -4 -1 -0 -0 -0 1 1 -0 -1 -0 -1 -2 -3 -4 -0 1 -1 -4 -0 3 3 -2 -4 -1 1 1 -0 -0 0 1 1 0 -0 -1 -1 -1 -1 -2 -2 -2 -2 -2 -2 -2 -2 -2 -2 -2 -2 -1 -1 -0 0 1 1 2 2 1 -0 -1 -1 -0 0 0 0 -1 -1 -1 -2 -2
1 1 1 1 1 1 1 1 1 1 0 0 -0 -0 -1 -1 -1 -1 0 0 0 0 0 -1 -1 -2 -2 -1 -1 -1 -1 -3 -4 -4 -3 -1 -1 -1 -1 0 0 -0 -1 -0 -1 -1 -3 -3 -3 -1 -1 -2 -1 2 6 1 -2 -3 -1 -0 -0 0 0 1 1 0 -0 -1 -1 -1 -2 -2 -2 -1 -1 -2 -2 -2 -2 -2 -2 -2 -2 -1 -0 0 1 1 2 1 1 -1 -2 -2 -1 -1 -1 -1 -1 -1 -1 -1 -1
1 1 1 1 1 1 1 1 1 1 0 0 0 -0 -1 -1 -1 -1 -0 0 0 1 1 -0 -1 -2 -1 -1 -1 -1 -1 -2 -3 -4 -4 -3 -2 -1 -1 -1 -0 0 -0 -0 -0 -1 -1 -2 -4 -4 -3 -3 -3 -3 0 4 3 0 -3 -3 -2 -0 -0 -0 -0 0 0 0 -0 -0 -1 -1 -1 -1 -1 -2 -3 -2 -2 -2 -2 -2 -2 -1 -0 0 1 1 1 1 0 -1 -2 -3 -3 -3 -3 -2 -1 -1 -0 0 -0
0 1 2 1 1 1 1 1 1 0 0 0 0 -0 -1 -1 -1 -1 -1 -0 0 1 1 0 -1 -2 -2 -1 -1 -0 -0 -0 -1 -3 -4 -4 -3 -3 -1 -1 -1 -1 -1 -0 -0 -0 -1 -1 -2 -2 -4 -4 -4 -3 -2 -1 1 2 1 -1 -1 -1 -0 -0 -1 -1 -1 -0 0 0 0 -0 -1 -1 -2 -2 -2 -2 -1 -1 -1 -1 -2 -1 -1 0 1 0 0 0 0 -0 -1 -2 -3 -3 -2 -1 0 1 1 0 0
Height
5875 5875 5875 5875 5875 5875 5876 5876 5876 5876 5876 5876 5876 5875 5875 5875 5875 5875 5875 5874 5874 5874 5874 5874 5873 5873 5873 5873 5872 5872 5871 5871 5870 5870 5869 5869 5868 5868 5867 5867 5867 5867 5866 5866 5865 5865 5864 5864 5863 5863 5862 5862 5861 5860 5860 5859 5858 5858 5858 5857 5856 5855 5854 5854 5853 5852 5852 5851 5850 5849 5848 5848 5847 5846 5846 5845 5844 5843 5843 5842 5841 5840 5840 5839 5838 5837 5837 5836 5835 5834 5833 5832 5832 5831 5830 5829 5828 5828 5827 5826 5825 5825 5824
5875 5875 5875 5875 5875 5875 5875 5875 5875 5875 5875 5875 5875 5875 5875 5875 5875 5874 5874 5874 5874 5873 5873 5873 5873 5873 5872 5872 5872 5871 5871 5870 5870 5869 5868 5868 5868 5867 5867 5866 5866 5866 5865 5865 5864 5864 5863 5863 5862 5862 5861 5860 5860 5859 5858 5858 5858 5857 5856 5856 5855 5854 5853 5853 5852 5851 5850 5850 5849 5848 5847 5846 5846 5845 5844 5843 5843 5842 5841 5840 5839 5838 5838 5837 5836 5835 5834 5834 5833 5832 5831 5830 5830 5829 5828 5827 5826 5825 5824 5823 5823 5823 5822
5874 5874 5874 5874 5875 5875 5875 5875 5875 5875 5875 5875 5875 5874 5874 5874 5874 5874 5874 5873 5873 5873 5873 5873 5872 5872 5872 5871 5871 5870 5870 5869 5869 5868 5868 5868 5867 5866 5866 5866 5865 5865 5864 5864 5863 5863 5862 5862 5861 5861 5860 5859 5859 5858 5858 5857 5856 5856 5855 5854 5853 5853 5852 5851 5850 5850 5849 5848 5848 5847 5846 5845 5844 5843 5843 5842 5841 5840 5839 5838 5838 5837 5836 5835 5834 5833 5833 5832 5831 5830 5829 5828 5828 5827 5826 5825 5824 5823 5823 5822 5821 5821 5819
5874 5874 5874 5874 5874 5874 5874 5874 5874 5874 5874 5874 5874 5874 5874 5874 5873 5873 5873 5873 5873 5872 5872 5872 5871 5871 5871 5870 5870 5870 5869 5869 5868 5868 5867 5867 5866 5866 5865 5865 5864 5864 5864 5863 5863 5862 5861 5861 5860 5860 5859 5858 5858 5857 5856 5856 5855 5854 5854 5853 5852 5852 5851 5850 5849 5848 5848 5847 5846 5845 5844 5843 5843 5842 5841 5840 5839 5838 5838 5837 5836 5835 5834 5833 5832 5831 5830 5830 5829 5828 5827 5826 5826 5825 5824 5823 5822 5821 5820 5819 5819 5818 5817
5873 5873 5874 5874 5874 5874 5874 5874 5874 5874 5874 5874 5874 5873 5873 5873 5873 5873 5873 5872 5872 5872 5871 5871 5871 5870 5870 5869 5869 5869 5868 5868 5867 5867 5866 5866 5866 5865 5865 5864 5864 5863 5863 5862 5862 5861 5861 5860 5859 5858 5858 5857 5857 5856 5855 5854 5854 5853 5852 5852 5851 5850 5849 5848 5848 5847 5846 5845 5844 5843 5843 5842 5841 5840 5839 5838 5838 5837 5836 5835 5834 5833 5832 5831 5830 5829 5828 5828 5827 5826 5825 5824 5823 5823 5822 5821 5820 5819 5818 5818 5817 5816 5815
5873 5873 5873 5873 5873 5873 5873 5873 5873 5873 5873 5873 5873 5873 5873 5873 5873 5872 5872 5872 5871 5871 5870 5870 5870 5869 5869 5869 5868 5868 5868 5867 5867 5866 5866 5865 5865 5864 5864 5863 5863 5863 5862 5862 5861 5860 5860 5859 5858 5858 5857 5856 5856 5855 5854 5853 5853 5852 5851 5850 5849 5848 5848 5847 5846 5845 5844 5843 5843 5842 5841 5840 5839 5838 5837 5836 5835 5835 5834 5833 5832 5831 5830 5829 5828 5828 5827 5826 5825 5824 5823 5822 5821 5820 5820 5819 5818 5817 5816 5815 5814 5814 5813
5873 5873 5873 5873 5873 5873 5873 5873 5873 5873 5873 5873 5873 5873 5872 5872 5872 5872 5871 5871 5871 5870 5870 5869 5869 5869 5868 5868 5868 5867 5867 5866 5866 5865 5865 5864 5864 5864 5863 5863 5862 5862 5861 5861 5860 5859 5859 5858 5857 5857 5856 5855 5854 5854 5853 5852 5851 5850 5849 5849 5848 5847 5846 5845 5845 5844 5843 5842 5841 5840 5839 5838 5837 5836 5835 5834 5833 5833 5832 5831 5830 5829 5828 5827 5826 5825 5824 5823 5823 5822 5821 5820 5819 5818 5818 5817 5816 5815 5814 5813 5812 5811 5811
5872 5872 5872 5872 5872 5872 5873 5872 5873 5873 5872 5872 5872 5872 5872 5871 5871 5871 5870 5870 5870 5869 5869 5868 5868 5868 5868 5867 5867 5866 5866 5865 5865 5864 5864 5864 5863 5863 5863 5862 5861 5861 5860 5860 5859 5858 5858 5857 5856 5855 5855 5854 5853 5852 5852 5851 5850 5849 5848 5847 5846 5845 5845 5844 5843 5842 5841 5840 5839 5838 5837 5836 5835 5834 5833 5832 5831 5830 5829 5829 5828 5827 5826 5825 5824 5823 5823 5821 5820 5819 5819 5818 5817 5816 5815 5814 5813 5813 5812 5811 5810 5809 5808
5871 5872 5872 5872 5872 5872 5872 5872 5872 5872 5872 5871 5871 5871 5871 5871 5870 5870 5870 5869 5869 5868 5868 5868 5868 5867 5867 5866 5866 5865 5865 5864 5864 5864 5863 5863 5863 5862 5862 5861 5860 5860 5859 5858 5858 5857 5856 5856 5855 5854 5853 5853 5852 5851 5850 5849 5848 5847 5847 5846 5845 5844 5843 5842 5841 5840 5839 5838 5837 5836 5835 5834 5833 5833 5832 5830 5829 5828 5828 5827 5826 5825 5824 5823 5822 5821 5820 5819 5818 5817 5817 5816 5815 5814 5813 5812 5811 5810 5810 5809 5808 5807 5806
5871 5871 5871 5871 5871 5871 5871 5871 5871 5871 5871 5871 5870 5870 5870 5870 5869 5869 5869 5868 5868 5868 5868 5867 5867 5866 5866 5865 5865 5865 5864 5864 5863 5863 5863 5862 5862 5861 5861 5860 5859 5859 5858 5858 5857 5856 5855 5854 5853 5853 5852 5851 5850 5849 5848 5848 5847 5846 5845 5844 5843 5842 5841 5840 5839 5838 5838 5836 5835 5834 5833 5832 5831 5830 5829 5828 5827 5826 5825 5824 5823 5823 5822 5821 5820 5819 5818 5817 5816 5815 5814 5813 5813 5812 5811 5810 5809 5808 5808 5807 5806 5805 5804
5870 5870 5870 5870 5870 5870 5870 5870 5870 5870 5870 5870 5869 5869 5869 5869 5868 5868 5868 5868 5867 5867 5867 5866 5866 5866 5865 5865 5864 5864 5863 5863 5863 5862 5862 5861 5861 5860 5860 5859 5858 5858 5857 5856 5855 5855 5854 5853 5852 5851 5851 5850 5849 5848 5847 5846 5845 5844 5843 5843 5842 5841 5840 5839 5838 5837 5836 5834 5833 5833 5832 5830 5829 5828 5827 5826 5825 5824 5823 5822 5821 5820 5819 5818 5818 5817 5816 5815 5814 5813 5812 5811 5810 5809 5808 5808 5807 5806 5805 5804 5803 5803 5802
5869 5869 5869 5869 5869 5869 5869 5869 5869 5869 5869 5869 5868 5868 5868 5868 5868 5867 5867 5867 5867 5866 5866 5866 5865 5865 5864 5864 5863 5863 5863 5862 5862 5861 5861 5860 5860 5859 5858 5858 5857 5857 5856 5855 5854 5853 5853 5852 5851 5850 5849 5848 5847 5846 5845 5844 5843 5843 5842 5841 5840 5839 5838 5837 5836 5835 5834 5833 5832 5831 5830 5828 5828 5827 5825 5824 5823 5822 5821 5820 5819 5818 5817 5816 5815 5814 5813 5813 5812 5811 5810 5809 5808 5807 5806 5805 5804 5803 5803 5802 5801 5800 5799
5868 5868 5868 5868 5868 5868 5868 5868 5868 5868 5868 5868 5868 5868 5867 5867 5867 5867 5866 5866 5866 5865 5865 5865 5864 5864 5863 5863 5863 5862 5862 5861 5861 5860 5860 5859 5859 5858 5857 5857 5856 5855 5854 5853 5853 5852 5851 5850 5849 5848 5847 5846 5845 5844 5844 5843 5842 5841 5840 5839 5838 5837 5836 5835 5834 5833 5832 5831 5830 5829 5828 5827 5825 5824 5823 5822 5821 5820 5819 5818 5817 5816 5815 5814 5813 5812 5811 5810 5809 5808 5807 5807 5806 5805 5804 5803 5802 5801 5800 5800 5799 5798 5797
5868 5868 5868 5868 5868 5868 5868 5868 5867 5867 5867 5867 5867 5867 5867 5866 5866 5866 5865 5865 5865 5865 5864 5864 5863 5863 5863 5862 5862 5861 5861 5860 5860 5859 5859 5858 5858 5857 5856 5855 5854 5854 5853 5852 5851 5850 5849 5848 5847 5846 5845 5844 5843 5843 5842 5841 5840 5839 5838 5837 5836 5835 5834 5833 5832 5831 5830 5829 5828 5827 5826 5824 5823 5822 5821 5820 5819 5818 5817 5816 5815 5814 5813 5812 5811 5810 5809 5808 5807 5806 5805 5804 5803 5802 5802 5801 5800 5799 5798 5797 5796 5795 5794
5867 5867 5867 5867 5867 5867 5867 5867 5867 5866 5866 5866 5866 5866 5866 5865 5865 5865 5865 5864 5864 5864 5863 5863 5863 5862 5862 5861 5861 5860 5860 5859 5859 5858 5858 5857 5856 5855 5855 5854 5853 5852 5851 5850 5849 5848 5848 5847 5846 5845 5844 5843 5842 5841 5840 5839 5838 5837 5836 5835 5834 5833 5832 5831 5830 5829 5828 5827 5826 5824 5823 5822 5821 5820 5819 5818 5817 5816 5814 5813 5813 5811 5810 5809 5808 5808 5807 5806 5805 5804 5803 5802 5801 5800 5799 5798 5797 5797 5796 5795 5794 5793 5792
5866 5866 5866 5866 5866 5866 5866 5866 5866 5866 5866 5865 5865 5865 5865 5865 5864 5864 5864 5864 5863 5863 5863 5862 5862 5861 5861 5860 5860 5859 5859 5858 5858 5857 5856 5856 5855 5854 5853 5852 5851 5851 5850 5849 5848 5847 5846 5845 5844 5843 5842 5841 5840 5839 5838 5837 5836 5835 5834 5833 5832 5831 5830 5829 5828 5827 5826 5825 5823 5822 5821 5820 5819 5818 5817 5815 5814 5813 5812 5811 5810 5809 5808 5807 5806 5805 5804 5803 5802 5801 5800 5799 5798 5798 5797 5796 5795 5794 5793 5792 5791 5790 5789
5865 5865 5865 5865 5865 5865 5865 5865 5865 5865 5865 5864 5864 5864 5864 5864 5864 5863 5863 5863 5863 5862 5862 5861 5861 5860 5860 5859 5858 5858 5857 5857 5856 5855 5855 5854 5853 5853 5852 5851 5850 5849 5848 5847 5846 5845 5844 5843 5842 5841 5840 5839 5838 5837 5836 5835 5834 5833 5832 5831 5830 5829 5828 5827 5826 5825 5824 5823 5821 5820 5819 5818 5817 5815 5814 5813 5812 5811 5810 5809 5808 5807 5806 5805 5804 5803 5802 5801 5800 5799 5798 5797 5796 5795 5794 5793 5792 5791 5790 5789 5788 5788 5787
5864 5864 5864 5864 5864 5864 5864 5864 5864 5864 5864 5864 5863 5863 5863 5863 5863 5863 5862 5862 5862 5861 5861 5860 5859 5859 5858 5858 5857 5857 5856 5855 5855 5854 5853 5853 5852 5851 5850 5849 5848 5847 5846 5845 5844 5843 5843 5842 5840 5839 5838 5838 5836 5835 5834 5833 5832 5831 5830 5829 5828 5827 5826 5825 5824 5823 5822 5820 5819 5818 5817 5816 5814 5813 5812 5811 5810 5809 5808 5807 5806 5805 5804 5803 5802 5801 5800 5799 5798 5797 5796 5795 5793 5793 5792 5790 5789 5788 5788 5787 5786 5785 5784
5863 5863 5863 5863 5863 5863 5863 5863 5863 5863 5863 5863 5863 5863 5862 5862 5862 5862 5861 5861 5860 5860 5859 5859 5858 5858 5857 5856 5856 5855 5854 5854 5853 5852 5852 5851 5850 5849 5848 5847 5846 5845 5844 5843 5843 5842 5841 5840 5838 5838 5837 5836 5834 5833 5833 5832 5830 5829 5828 5827 5826 5825 5824 5823 5822 5821 5819 5818 5817 5816 5815 5813 5812 5811 5810 5809 5808 5807 5806 5805 5803 5803 5801 5800 5799 5798 5798 5796 5795 5794 5793 5792 5791 5790 5789 5788 5787 5786 5785 5784 5783 5782 5781
5863 5863 5863 5863 5863 5863 5862 5862 5862 5862 5862 5862 5862 5862 5861 5861 5861 5860 5860 5860 5859 5859 5858 5858 5857 5856 5856 5855 5854 5853 5853 5852 5851 5851 5850 5849 5848 5847 5846 5846 5845 5844 5843 5842 5841 5840 5839 5838 5837 5836 5835 5834 5833 5832 5831 5829 5828 5828 5827 5825 5824 5823 5822 5821 5820 5819 5818 5816 5815 5814 5813 5811 5810 5809 5808 5807 5806 5804 5803 5802 5801 5800 5799 5798 5797 5796 5795 5794 5793 5792 5791 5790 5789 5788 5787 5786 5784 5783 5782 5781 5780 5779 5778
5862 5862 5862 5862 5862 5862 5862 5861 5861 5861 5861 5861 5861 5860 5860 5860 5860 5859 5859 5858 5858 5857 5857 5856 5855 5855 5854 5853 5853 5852 5851 5850 5850 5849 5848 5847 5847 5846 5845 5844 5843 5842 5841 5840 5839 5838 5837 5836 5835 5834 5833 5832 5831 5830 5828 5828 5827 5826 5824 5823 5822 5821 5820 5819 5818 5817 5815 5814 5813 5811 5810 5809 5808 5807 5806 5804 5803 5802 5801 5800 5799 5798 5797 5795 5794 5793 5793 5792 5791 5789 5788 5787 5786 5785 5784 5783 5782 5781 5780 5778 5777 5776 5775
5861 5861 5861 5861 5861 5861 5861 5860 5860 5860 5860 5860 5860 5859 5859 5859 5858 5858 5858 5857 5857 5856 5855 5855 5854 5853 5853 5852 5851 5850 5850 5849 5848 5847 5847 5846 5845 5844 5843 5842 5841 5840 5839 5838 5837 5836 5835 5834 5833 5832 5831 5830 5829 5828 5827 5826 5824 5823 5822 5821 5820 5819 5818 5817 5815 5814 5813 5812 5810 5809 5808 5807 5806 5804 5803 5802 5801 5800 5799 5798 5797 5795 5794 5793 5792 5791 5790 5789 5788 5787 5786 5785 5784 5783 5782 5781 5779 5778 5777 5776 5775 5773 5772
5860 5860 5860 5860 5860 5860 5859 5859 5859 5859 5859 5859 5858 5858 5858 5858 5857 5857 5856 5856 5855 5854 5854 5853 5853 5852 5851 5850 5849 5849 5848 5847 5846 5846 5845 5844 5843 5842 5841 5840 5839 5838 5837 5836 5835 5834 5833 5832 5831 5830 5829 5828 5827 5826 5825 5823 5823 5821 5820 5819 5818 5817 5815 5814 5813 5812 5810 5809 5808 5807 5805 5804 5803 5802 5801 5800 5798 5798 5796 5795 5794 5793 5792 5791 5789 5788 5788 5787 5785 5784 5783 5782 5781 5780 5779 5778 5777 5776 5775 5773 5772 5771 5770
5859 5859 5859 5859 5859 5858 5858 5858 5858 5858 5858 5858 5857 5857 5857 5856 5856 5855 5855 5854 5854 5853 5853 5852 5851 5850 5849 5849 5848 5847 5846 5845 5845 5844 5843 5842 5841 5840 5839 5838 5837 5836 5835 5834 5833 5832 5831 5830 5829 5828 5827 5826 5825 5823 5823 5821 5820 5819 5818 5817 5815 5814 5813 5812 5810 5809 5808 5807 5806 5804 5803 5802 5801 5799 5798 5797 5796 5795 5794 5793 5792 5790 5789 5788 5787 5786 5785 5784 5783 5782 5781 5779 5778 5777 5776 5775 5774 5773 5772 5771 5770 5768 5767
5858 5858 5858 5858 5858 5858 5858 5857 5857 5857 5857 5857 5856 5856 5856 5855 5855 5854 5854 5853 5853 5852 5851 5850 5849 5849 5848 5847 5846 5845 5845 5844 5843 5842 5841 5840 5839 5838 5838 5836 5835 5834 5833 5832 5831 5830 5829 5828 5827 5826 5825 5824 5823 5822 5820 5819 5818 5817 5816 5814 5813 5812 5811 5809 5808 5807 5806 5804 5803 5802 5801 5799 5798 5797 5796 5795 5793 5792 5791 5790 5789 5788 5787 5786 5784 5783 5783 5782 5780 5779 5778 5777 5776 5774 5773 5772 5771 5770 5769 5768 5767 5766 5764
5857 5857 5857 5857 5857 5857 5856 5856 5856 5856 5856 5855 5855 5855 5854 5854 5853 5853 5852 5852 5851 5850 5849 5849 5848 5847 5846 5846 5845 5844 5843 5842 5841 5840 5839 5838 5838 5837 5836 5834 5833 5833 5831 5830 5829 5828 5827 5826 5825 5824 5823 5822 5821 5819 5818 5817 5816 5814 5813 5812 5811 5809 5808 5807 5806 5804 5803 5802 5801 5799 5798 5797 5796 5794 5793 5792 5791 5790 5788 5788 5786 5785 5784 5783 5782 5781 5780 5779 5778 5777 5776 5774 5773 5772 5771 5770 5769 5768 5767 5765 5764 5763 5762
5856 5856 5856 5856 5856 5856 5855 5855 5855 5855 5855 5854 5854 5853 5853 5853 5852 5852 5851 5850 5850 5849 5848 5847 5847 5846 5845 5844 5843 5842 5842 5841 5840 5839 5838 5837 5836 5835 5833 5833 5832 5831 5829 5828 5828 5826 5825 5824 5823 5822 5821 5820 5818 5817 5816 5815 5813 5812 5811 5809 5808 5807 5806 5804 5803 5802 5801 5799 5798 5797 5796 5795 5793 5792 5791 5790 5788 5787 5786 5785 5784 5783 5781 5780 5779 5778 5778 5777 5776 5775 5773 5772 5771 5770 5768 5768 5766 5765 5764 5763 5762 5760 5759
5855 5855 5855 5855 5855 5855 5854 5854 5854 5854 5853 5853 5853 5852 5852 5851 5851 5850 5850 5849 5848 5848 5847 5846 5845 5844 5843 5843 5842 5841 5840 5839 5838 5837 5836 5835 5834 5833 5832 5831 5830 5829 5828 5827 5825 5824 5823 5822 5821 5820 5819 5818 5816 5815 5814 5813 5811 5810 5808 5807 5806 5804 5803 5802 5801 5799 5798 5797 5796 5795 5793 5792 5791 5790 5788 5787 5786 5785 5784 5783 5781 5780 5779 5778 5777 5776 5775 5774 5773 5772 5771 5770 5769 5768 5766 5765 5764 5763 5762 5760 5759 5758 5756
5854 5854 5854 5854 5854 5853 5853 5853 5853 5853 5852 5852 5852 5851 5851 5850 5849 5849 5848 5848 5847 5846 5845 5844 5843 5843 5842 5841 5840 5839 5838 5837 5836 5835 5834 5833 5832 5831 5830 5829 5828 5827 5826 5824 5823 5822 5821 5820 5819 5818 5817 5815 5814 5813 5811 5810 5809 5808 5806 5805 5803 5802 5801 5800 5798 5797 5796 5795 5793 5792 5791 5790 5789 5788 5786 5785 5784 5783 5781 5780 5779 5778 5777 5776 5774 5773 5773 5772 5771 5770 5769 5768 5766 5765 5764 5763 5762 5760 5759 5758 5757 5755 5754
5853 5853 5853 5853 5853 5853 5852 5852 5852 5852 5851 5851 5850 5850 5849 5849 5848 5848 5847 5846 5845 5845 5844 5843 5842 5841 5840 5839 5838 5837 5836 5835 5834 5833 5832 5831 5830 5829 5828 5827 5826 5824 5823 5822 5821 5820 5819 5818 5817 5815 5814 5813 5812 5810 5809 5808 5806 5805 5803 5802 5801 5800 5798 5797 5796 5795 5793 5792 5791 5790 5789 5788 5786 5785 5784 5783 5781 5780 5779 5778 5777 5775 5774 5773 5772 5771 5770 5770 5769 5768 5766 5765 5764 5763 5762 5760 5759 5758 5757 5755 5754 5753 5752
5853 5853 5852 5852 5852 5851 5851 5851 5851 5850 5850 5850 5849 5849 5848 5848 5847 5846 5845 5845 5844 5843 5842 5841 5840 5839 5838 5837 5836 5835 5834 5833 5832 5831 5830 5829 5828 5827 5826 5824 5823 5822 5821 5820 5819 5818 5817 5816 5814 5813 5812 5811 5809 5808 5807 5805 5804 5803 5801 5800 5798 5797 5796 5795 5793 5792 5791 5790 5789 5788 5786 5785 5784 5783 5781 5780 5779 5778 5777 5775 5774 5773 5772 5771 5770 5769 5768 5768 5767 5765 5764 5763 5761 5760 5759 5758 5757 5756 5754 5753 5752 5751 5749
5852 5851 5851 5851 5851 5850 5850 5850 5849 5849 5849 5848 5848 5847 5847 5846 5845 5844 5844 5843 5842 5841 5840 5839 5838 5837 5836 5835 5834 5833 5832 5831 5830 5829 5828 5827 5826 5824 5823 5822 5821 5820 5819 5818 5817 5816 5815 5813 5812 5811 5810 5808 5807 5806 5804 5803 5801 5800 5799 5797 5796 5795 5793 5792 5791 5790 5788 5788 5786 5785 5784 5783 5782 5780 5779 5778 5777 5775 5774 5773 5772 5771 5770 5768 5768 5767 5766 5765 5764 5763 5762 5761 5759 5758 5757 5755 5754 5753 5752 5751 5750 5748 5747
5851 5850 5850 5850 5850 5849 5849 5849 5848 5848 5848 5847 5847 5846 5845 5844 5844 5843 5842 5841 5840 5839 5838 5838 5836 5835 5834 5833 5832 5831 5830 5829 5828 5827 5826 5824 5823 5822 5821 5820 5819 5818 5817 5816 5815 5813 5812 5811 5810 5808 5807 5806 5804 5803 5802 5800 5799 5798 5796 5795 5793 5792 5791 5790 5789 5788 5786 5785 5784 5783 5782 5780 5779 5778 5777 5776 5774 5773 5772 5771 5770 5768 5768 5767 5765 5764 5764 5763 5762 5761 5760 5759 5758 5756 5754 5753 5752 5751 5750 5748 5748 5746 5745
5849 5849 5849 5849 5848 5848 5848 5848 5847 5847 5846 5846 5845 5844 5844 5843 5842 5841 5840 5839 5838 5838 5837 5836 5834 5833 5832 5831 5830 5829 5828 5827 5825 5824 5823 5822 5821 5820 5819 5818 5817 5816 5815 5813 5813 5811 5810 5809 5808 5806 5805 5803 5802 5801 5799 5798 5796 5795 5794 5793 5791 5790 5789 5788 5786 5785 5784 5783 5782 5780 5779 5778 5777 5776 5775 5773 5772 5771 5770 5768 5768 5766 5765 5764 5763 5762 5761 5761 5760 5759 5758 5757 5756 5754 5753 5751 5750 5748 5747 5746 5745 5744 5743
5848 5848 5848 5848 5847 5847 5847 5846 5846 5845 5845 5844 5844 5843 5842 5841 5840 5839 5838 5838 5837 5836 5835 5833 5832 5831 5830 5829 5828 5827 5826 5824 5823 5822 5821 5820 5819 5818 5817 5816 5815 5813 5812 5811 5810 5809 5808 5807 5805 5804 5803 5801 5800 5798 5797 5795 5794 5793 5791 5790 5789 5788 5786 5785 5784 5783 5782 5780 5779 5778 5777 5776 5775 5773 5773 5771 5770 5769 5768 5767 5765 5764 5763 5762 5761 5760 5759 5758 5758 5757 5756 5754 5753 5752 5751 5749 5748 5746 5745 5744 5743 5742 5741
5847 5847 5847 5846 5846 5846 5845 5845 5844 5844 5843 5843 5842 5841 5840 5839 5838 5838 5837 5836 5835 5834 5833 5832 5830 5829 5828 5827 5826 5824 5823 5822 5821 5820 5819 5818 5817 5816 5814 5813 5812 5811 5810 5809 5808 5807 5805 5804 5803 5802 5800 5799 5797 5796 5794 5793 5792 5790 5789 5788 5787 5785 5784 5783 5782 5780 5779 5778 5777 5776 5775 5774 5773 5771 5770 5769 5768 5767 5765 5764 5763 5762 5761 5760 5759 5758 5757 5756 5755 5754 5753 5752 5751 5750 5749 5748 5746 5744 5743 5742 5741 5739 5738
5846 5846 5845 5845 5845 5844 5844 5843 5843 5842 5842 5841 5840 5839 5838 5838 5837 5836 5835 5834 5833 5832 5831 5829 5828 5827 5826 5824 5823 5823 5821 5820 5819 5818 5817 5816 5814 5813 5812 5811 5810 5809 5808 5807 5805 5804 5803 5802 5800 5799 5798 5796 5795 5793 5792 5791 5789 5788 5787 5785 5784 5783 5782 5781 5779 5778 5777 5776 5775 5774 5773 5772 5770 5769 5768 5767 5766 5764 5763 5762 5761 5760 5759 5758 5757 5756 5755 5754 5753 5752 5751 5750 5749 5748 5747 5746 5744 5743 5741 5740 5738 5737 5736
5844 5844 5844 5843 5843 5843 5842 5842 5841 5840 5840 5839 5838 5838 5837 5836 5835 5834 5833 5832 5831 5830 5829 5828 5826 5825 5823 5822 5821 5820 5819 5818 5817 5816 5815 5813 5812 5811 5810 5809 5808 5807 5805 5804 5803 5802 5801 5799 5798 5797 5795 5794 5793 5791 5790 5788 5787 5786 5785 5783 5782 5781 5780 5778 5777 5776 5775 5774 5773 5772 5770 5769 5768 5767 5766 5765 5763 5762 5761 5760 5758 5758 5756 5755 5754 5753 5753 5752 5751 5750 5748 5748 5747 5745 5744 5743 5742 5741 5739 5738 5736 5735 5734
5843 5843 5843 5842 5842 5841 5841 5840 5839 5839 5838 5837 5837 5836 5834 5833 5833 5832 5831 5830 5829 5828 5827 5826 5824 5823 5822 5820 5819 5818 5817 5816 5815 5814 5813 5811 5810 5809 5808 5807 5805 5804 5803 5802 5801 5799 5798 5797 5796 5794 5793 5792 5790 5789 5788 5787 5785 5784 5783 5781 5780 5779 5778 5776 5775 5774 5773 5772 5770 5769 5768 5767 5766 5765 5763 5762 5761 5760 5758 5758 5756 5755 5754 5753 5752 5751 5750 5749 5748 5747 5746 5745 5744 5743 5742 5741 5740 5738 5737 5735 5734 5733 5731
5842 5841 5841 5841 5840 5840 5839 5838 5838 5837 5836 5835 5834 5834 5833 5832 5831 5830 5829 5828 5827 5826 5824 5823 5822 5821 5819 5818 5817 5816 5815 5814 5813 5811 5810 5809 5808 5807 5806 5804 5803 5802 5801 5800 5798 5797 5796 5795 5793 5792 5791 5789 5788 5787 5786 5784 5783 5782 5780 5779 5778 5777 5775 5774 5773 5772 5771 5769 5768 5767 5766 5765 5763 5763 5761 5760 5759 5758 5756 5755 5754 5753 5752 5751 5749 5748 5748 5747 5746 5745 5744 5743 5742 5741 5739 5738 5737 5736 5735 5733 5732 5730 5729
5840 5840 5839 5839 5839 5838 5838 5837 5836 5835 5834 5833 5833 5832 5831 5830 5828 5828 5827 5826 5824 5823 5823 5821 5820 5819 5818 5816 5815 5814 5813 5812 5810 5809 5808 5807 5806 5804 5803 5802 5801 5800 5798 5797 5796 5795 5793 5792 5791 5790 5788 5787 5786 5785 5784 5782 5781 5780 5778 5777 5776 5775 5773 5772 5771 5770 5768 5767 5766 5765 5764 5763 5761 5760 5759 5758 5756 5755 5754 5753 5752 5750 5749 5748 5747 5746 5745 5744 5743 5743 5741 5740 5739 5738 5737 5736 5735 5733 5732 5731 5729 5728 5727
5838 5838 5838 5838 5837 5837 5836 5835 5834 5833 5832 5832 5831 5830 5829 5828 5827 5825 5824 5823 5822 5821 5820 5819 5818 5817 5816 5814 5813 5812 5811 5809 5808 5807 5806 5804 5803 5802 5801 5800 5798 5797 5796 5795 5793 5792 5791 5790 5789 5788 5786 5785 5784 5783 5782 5780 5779 5778 5776 5775 5774 5773 5771 5770 5769 5768 5766 5765 5764 5763 5762 5760 5759 5758 5757 5755 5754 5753 5752 5750 5749 5748 5747 5746 5744 5743 5743 5742 5741 5740 5739 5738 5737 5736 5735 5733 5732 5731 5729 5728 5727 5725 5724
5837 5837 5836 5836 5836 5835 5834 5833 5832 5831 5830 5830 5829 5828 5827 5826 5824 5823 5822 5821 5820 5819 5818 5817 5816 5815 5813 5812 5811 5810 5809 5808 5806 5805 5803 5802 5801 5800 5798 5797 5796 5795 5793 5793 5791 5790 5789 5788 5787 5785 5784 5783 5782 5781 5779 5778 5777 5776 5774 5773 5772 5771 5769 5768 5767 5766 5764 5763 5762 5760 5759 5758 5757 5755 5754 5753 5752 5750 5749 5748 5747 5745 5744 5743 5742 5741 5740 5739 5738 5737 5736 5735 5734 5733 5732 5731 5729 5728 5727 5726 5724 5723 5721
5835 5835 5835 5834 5834 5833 5833 5832 5830 5829 5828 5828 5827 5826 5825 5824 5823 5821 5820 5819 5818 5817 5816 5815 5814 5813 5811 5810 5809 5808 5807 5805 5804 5803 5801 5800 5799 5798 5796 5795 5794 5793 5791 5790 5789 5788 5787 5785 5784 5783 5782 5781 5780 5778 5777 5776 5775 5773 5772 5771 5770 5768 5767 5766 5765 5763 5762 5761 5760 5758 5757 5756 5754 5753 5752 5751 5749 5748 5747 5746 5744 5743 5742 5741 5739 5738 5737 5736 5735 5734 5734 5733 5732 5731 5729 5728 5727 5726 5724 5723 5722 5720 5719
5834 5833 5833 5833 5832 5832 5831 5830 5829 5828 5827 5826 5825 5824 5823 5822 5821 5819 5818 5817 5816 5815 5814 5813 5812 5811 5809 5808 5807 5805 5804 5803 5802 5801 5799 5798 5797 5795 5794 5793 5792 5790 5789 5788 5787 5786 5784 5783 5782 5781 5780 5778 5778 5776 5775 5774 5773 5771 5770 5769 5768 5766 5765 5764 5763 5761 5760 5759 5757 5756 5755 5753 5752 5751 5749 5748 5747 5746 5745 5743 5742 5741 5740 5738 5737 5736 5735 5734 5733 5732 5731 5730 5729 5728 5727 5725 5724 5723 5722 5720 5719 5717 5716
5832 5832 5831 5831 5830 5830 5829 5828 5827 5826 5825 5824 5823 5822 5821 5820 5818 5817 5816 5815 5813 5813 5811 5810 5809 5808 5807 5806 5805 5803 5802 5801 5799 5798 5797 5796 5794 5793 5792 5791 5789 5788 5787 5786 5785 5783 5782 5781 5780 5779 5778 5776 5775 5774 5773 5772 5770 5769 5768 5767 5765 5764 5763 5762 5760 5759 5758 5756 5755 5754 5752 5751 5750 5748 5747 5746 5745 5743 5743 5741 5740 5739 5737 5736 5735 5733 5732 5731 5730 5729 5728 5727 5726 5725 5723 5723 5721 5720 5719 5717 5716 5714 5713
5831 5830 5830 5829 5828 5828 5827 5826 5825 5824 5823 5822 5821 5820 5819 5818 5817 5815 5814 5813 5812 5810 5809 5808 5807 5806 5805 5804 5803 5801 5799 5798 5797 5796 5795 5793 5792 5791 5790 5788 5787 5786 5785 5783 5782 5781 5780 5779 5778 5777 5775 5774 5773 5772 5770 5769 5768 5767 5765 5764 5763 5762 5761 5759 5758 5757 5755 5754 5753 5751 5750 5749 5747 5746 5745 5743 5742 5741 5740 5739 5738 5737 5735 5734 5733 5731 5730 5728 5727 5726 5725 5724 5723 5722 5720 5719 5718 5717 5716 5714 5713 5712 5710
5829 5828 5828 5828 5827 5826 5825 5824 5823 5822 5821 5820 5819 5818 5817 5816 5814 5813 5812 5811 5809 5808 5807 5806 5805 5804 5803 5802 5800 5799 5797 5796 5795 5794 5793 5791 5790 5789 5788 5787 5785 5784 5783 5782 5780 5779 5778 5777 5776 5774 5773 5772 5771 5769 5768 5767 5766 5764 5763 5762 5761 5759 5758 5757 5756 5754 5753 5752 5750 5749 5748 5746 5745 5744 5743 5741 5740 5739 5738 5737 5735 5734 5733 5732 5730 5729 5728 5726 5725 5723 5722 5721 5719 5718 5717 5716 5715 5714 5713 5712 5710 5709 5707
5827 5827 5826 5826 5825 5824 5823 5822 5821 5820 5819 5818 5818 5816 5815 5814 5812 5811 5810 5808 5807 5806 5804 5803 5803 5802 5801 5800 5798 5797 5795 5794 5793 5791 5790 5789 5788 5787 5785 5785 5783 5782 5781 5779 5778 5777 5776 5775 5773 5772 5771 5770 5768 5767 5766 5765 5763 5762 5761 5760 5758 5757 5756 5754 5753 5752 5751 5749 5748 5747 5745 5744 5743 5741 5740 5739 5738 5737 5735 5734 5733 5732 5731 5729 5728 5726 5725 5723 5722 5720 5719 5718 5716 5715 5714 5713 5712 5711 5710 5708 5707 5706 5704
5825 5825 5824 5823 5823 5822 5822 5820 5819 5818 5817 5816 5815 5814 5813 5812 5810 5809 5807 5806 5805 5803 5802 5801 5800 5799 5798 5797 5796 5795 5793 5792 5790 5789 5788 5787 5786 5784 5783 5782 5781 5780 5779 5778 5776 5775 5774 5773 5771 5770 5769 5768 5767 5765 5764 5763 5761 5760 5759 5758 5756 5755 5753 5752 5751 5749 5748 5747 5745 5744 5743 5742 5740 5739 5738 5737 5736 5734 5733 5732 5731 5729 5728 5727 5725 5724 5723 5721 5719 5718 5716 5715 5713 5712 5711 5710 5709 5708 5707 5705 5704 5703 5701
5823 5823 5822 5822 5821 5820 5820 5818 5817 5816 5815 5814 5813 5812 5811 5809 5808 5806 5805 5804 5803 5801 5800 5799 5798 5797 5796 5795 5794 5792 5791 5789 5788 5787 5786 5784 5783 5783 5781 5780 5779 5778 5777 5775 5774 5773 5772 5770 5769 5768 5767 5765 5764 5763 5762 5760 5759 5758 5756 5755 5754 5753 5751 5750 5748 5747 5746 5744 5743 5742 5740 5739 5738 5737 5735 5734 5733 5732 5731 5730 5728 5727 5726 5724 5723 5721 5720 5718 5717 5715 5713 5712 5710 5709 5708 5707 5706 5705 5703 5702 5701 5699 5698
5822 5821 5820 5820 5819 5818 5818 5817 5815 5814 5813 5812 5810 5809 5808 5807 5806 5804 5803 5802 5800 5799 5798 5797 5796 5794 5793 5793 5791 5790 5788 5787 5786 5785 5784 5782 5781 5780 5779 5778 5777 5775 5774 5773 5772 5771 5771 5769 5767 5766 5765 5763 5762 5761 5759 5758 5757 5756 5754 5753 5752 5750 5749 5747 5746 5745 5743 5742 5740 5739 5738 5737 5735 5734 5733 5732 5731 5729 5728 5727 5726 5725 5724 5722 5721 5719 5718 5716 5714 5713 5711 5709 5708 5706 5705 5704 5703 5701 5700 5699 5698 5696 5695
5820 5819 5818 5818 5817 5816 5816 5814 5813 5812 5810 5809 5808 5807 5806 5805 5803 5802 5801 5799 5798 5797 5795 5794 5793 5793 5791 5790 5789 5788 5786 5785 5784 5783 5782 5780 5779 5778 5777 5776 5775 5773 5773 5772 5770 5768 5768 5767 5765 5764 5763 5762 5760 5758 5758 5756 5755 5753 5752 5751 5749 5748 5747 5745 5744 5742 5741 5739 5738 5737 5735 5734 5733 5732 5730 5729 5728 5727 5726 5725 5723 5722 5721 5720 5718 5717 5715 5713 5712 5710 5708 5706 5705 5703 5702 5701 5699 5698 5697 5696 5694 5693 5691
5818 5817 5816 5816 5815 5814 5813 5812 5811 5809 5808 5807 5806 5805 5803 5803 5801 5800 5798 5797 5796 5794 5793 5792 5791 5790 5789 5788 5787 5786 5784 5783 5782 5780 5779 5778 5777 5776 5774 5773 5773 5772 5770 5770 5768 5767 5765 5764 5763 5762 5761 5759 5758 5756 5756 5754 5753 5751 5750 5748 5747 5745 5744 5743 5742 5740 5738 5737 5736 5734 5733 5732 5731 5729 5728 5727 5725 5724 5723 5722 5721 5720 5718 5717 5716 5714 5713 5711 5709 5708 5705 5703 5702 5700 5699 5698 5696 5695 5693 5692 5691 5689 5688
5816 5815 5814 5813 5813 5812 5811 5810 5809 5807 5806 5805 5803 5802 5801 5800 5799 5798 5796 5795 5794 5792 5791 5790 5789 5788 5787 5785 5784 5783 5782 5781 5780 5778 5777 5776 5775 5774 5773 5771 5770 5768 5767 5767 5766 5765 5764 5762 5761 5759 5759 5758 5756 5754 5753 5752 5751 5749 5747 5746 5745 5743 5742 5741 5739 5738 5736 5735 5733 5732 5730 5729 5728 5727 5726 5724 5723 5722 5720 5719 5718 5717 5715 5714 5713 5711 5710 5708 5707 5705 5703 5701 5699 5698 5696 5695 5693 5692 5690 5689 5688 5686 5684
5814 5813 5812 5811 5810 5809 5808 5808 5807 5805 5804 5803 5801 5800 5799 5798 5797 5795 5794 5793 5791 5790 5789 5788 5787 5786 5784 5783 5782 5781 5780 5778 5778 5776 5775 5774 5773 5772 5771 5769 5768 5767 5765 5764 5763 5762 5761 5761 5759 5757 5755 5755 5754 5753 5750 5749 5748 5747 5745 5744 5742 5741 5740 5738 5737 5736 5734 5733 5731 5729 5728 5727 5725 5724 5723 5722 5720 5719 5718 5717 5715 5714 5713 5711 5710 5708 5707 5705 5704 5702 5700 5698 5696 5695 5693 5692 5690 5688 5687 5686 5684 5683 5681
5812 5811 5810 5809 5808 5807 5806 5805 5804 5803 5802 5800 5799 5798 5796 5795 5794 5793 5792 5790 5789 5788 5787 5786 5784 5783 5782 5781 5780 5779 5778 5776 5775 5774 5773 5772 5771 5769 5768 5767 5766 5765 5764 5762 5761 5760 5758 5758 5758 5756 5754 5753 5752 5751 5749 5747 5745 5745 5743 5742 5740 5739 5738 5736 5735 5733 5732 5730 5728 5727 5725 5724 5723 5721 5720 5719 5718 5716 5715 5714 5712 5711 5710 5708 5707 5706 5704 5703 5701 5699 5697 5695 5693 5692 5690 5689 5687 5686 5684 5682 5681 5679 5678
5810 5809 5808 5807 5806 5805 5804 5803 5802 5801 5799 5798 5797 5795 5794 5793 5792 5791 5789 5788 5787 5786 5784 5783 5782 5781 5780 5779 5778 5777 5775 5774 5773 5772 5771 5770 5769 5768 5766 5764 5763 5762 5761 5760 5759 5758 5756 5755 5754 5753 5753 5751 5749 5748 5748 5746 5744 5742 5741 5739 5738 5737 5735 5734 5733 5731 5729 5728 5726 5725 5723 5722 5720 5719 5717 5716 5715 5713 5712 5711 5709 5708 5707 5705 5704 5703 5701 5699 5698 5696 5694 5692 5690 5688 5687 5686 5684 5683 5681 5679 5678 5676 5674
5807 5806 5805 5804 5803 5803 5802 5801 5799 5798 5797 5796 5794 5793 5792 5791 5789 5788 5787 5786 5785 5784 5783 5781 5780 5779 5778 5777 5776 5775 5773 5772 5770 5769 5768 5767 5766 5765 5764 5763 5761 5760 5759 5757 5756 5755 5754 5753 5752 5750 5749 5748 5747 5746 5745 5744 5743 5740 5738 5737 5735 5734 5733 5732 5730 5729 5727 5726 5724 5723 5721 5720 5718 5717 5715 5713 5712 5711 5709 5708 5706 5705 5703 5702 5701 5700 5698 5696 5695 5693 5691 5688 5687 5685 5684 5682 5681 5679 5678 5676 5674 5673 5671
5805 5804 5803 5802 5801 5800 5799 5798 5797 5796 5795 5793 5792 5791 5790 5788 5787 5786 5785 5784 5783 5782 5781 5779 5778 5777 5776 5775 5774 5773 5771 5770 5768 5767 5766 5765 5764 5763 5762 5761 5759 5758 5757 5756 5754 5753 5752 5750 5749 5748 5747 5746 5745 5743 5742 5741 5740 5738 5736 5734 5733 5731 5730 5729 5728 5726 5724 5723 5722 5720 5719 5718 5716 5714 5713 5711 5709 5708 5706 5705 5703 5702 5700 5699 5698 5697 5695 5693 5691 5689 5688 5685 5683 5682 5680 5679 5677 5676 5674 5673 5671 5669 5668
5802 5801 5800 5799 5798 5798 5797 5796 5795 5793 5792 5791 5790 5788 5787 5786 5784 5783 5783 5782 5781 5780 5778 5777 5776 5775 5774 5773 5772 5771 5769 5768 5767 5765 5763 5763 5761 5760 5759 5758 5758 5756 5755 5753 5752 5751 5749 5748 5747 5745 5744 5743 5742 5741 5740 5739 5738 5736 5734 5733 5731 5729 5728 5726 5725 5723 5722 5721 5719 5718 5717 5715 5713 5712 5710 5708 5707 5705 5704 5702 5700 5699 5697 5696 5695 5693 5692 5690 5688 5686 5684 5682 5680 5679 5677 5676 5674 5673 5671 5669 5668 5666 5664